"read_dt","SO2 (ppb)","flags","PMT voltage (V)","lamp voltage (V)","lamp intensity (Hz)","internal temp (C)","react chamber temp (C)","sample flow (l/min)","pres (mmHg)","SO2 bkg (ppb)","SO2 coefficient"
2015-09-04 00:00:00,2121E-3,5C000400,-0724,0823,12314,028.9,045.5,0.255,758.5,01.16,0.508
2015-09-04 00:01:00,2067E-3,5C000400,-0724,0823,12254,028.8,045.5,0.255,758.5,01.16,0.508
2015-09-04 00:02:00,1947E-3,5C000400,-0724,0823,12106,028.7,045.5,0.255,758.4,01.16,0.508
2015-09-04 00:03:00,2059E-3,5C000400,-0724,0822,12194,028.6,045.5,0.255,758.6,01.16,0.508
2015-09-04 00:04:00,2157E-3,5C000400,-0724,0823,12301,028.6,045.5,0.255,758.5,01.16,0.508
2015-09-04 00:05:00,2241E-3,5C000400,-0724,0823,12281,028.5,045.5,0.255,758.5,01.16,0.508
2015-09-04 00:06:00,1985E-3,5C000400,-0724,0823,12269,028.5,045.5,0.255,758.4,01.16,0.508
2015-09-04 00:07:00,1976E-3,5C000400,-0724,0822,12243,028.6,045.5,0.255,758.5,01.16,0.508
2015-09-04 00:08:00,2052E-3,5C000400,-0724,0823,12197,028.8,045.5,0.255,758.5,01.16,0.508
2015-09-04 00:09:00,1985E-3,5C000400,-0724,0823,12348,028.9,045.5,0.255,758.4,01.16,0.508
2015-09-04 00:10:00,1917E-3,5C000400,-0724,0822,12271,029.0,045.5,0.255,758.4,01.16,0.508
2015-09-04 00:11:00,2027E-3,5C000400,-0724,0823,12228,029.1,045.5,0.255,758.3,01.16,0.508
2015-09-04 00:12:00,1926E-3,5C000400,-0724,0823,12224,029.2,045.5,0.255,758.3,01.16,0.508
2015-09-04 00:13:00,1929E-3,5C000400,-0724,0823,12313,029.3,045.5,0.255,758.4,01.16,0.508
2015-09-04 00:14:00,1980E-3,5C000400,-0724,0822,12312,029.3,045.5,0.255,758.3,01.16,0.508
2015-09-04 00:15:00,2046E-3,5C000400,-0724,0822,12203,029.3,045.5,0.255,758.3,01.16,0.508
2015-09-04 00:16:00,2053E-3,5C000400,-0724,0822,12132,029.3,045.5,0.254,758.3,01.16,0.508
2015-09-04 00:17:00,2087E-3,5C000400,-0724,0822,12401,029.2,045.5,0.255,758.4,01.16,0.508
2015-09-04 00:18:00,2055E-3,5C000400,-0724,0822,12257,029.1,045.5,0.255,758.5,01.16,0.508
2015-09-04 00:19:00,2042E-3,5C000400,-0724,0822,12249,028.9,045.5,0.255,758.5,01.16,0.508
2015-09-04 00:20:00,1989E-3,5C000400,-0724,0823,12257,028.8,045.5,0.255,758.5,01.16,0.508
2015-09-04 00:21:00,2037E-3,5C000400,-0724,0823,12291,028.7,045.5,0.255,758.4,01.16,0.508
2015-09-04 00:22:00,1918E-3,5C000400,-0724,0823,12345,028.6,045.5,0.255,758.4,01.16,0.508
2015-09-04 00:23:00,2125E-3,5C000400,-0724,0822,12270,028.6,045.5,0.255,758.4,01.16,0.508
2015-09-04 00:24:00,2047E-3,5C000400,-0724,0822,12156,028.5,045.5,0.255,758.5,01.16,0.508
2015-09-04 00:25:00,1965E-3,5C000400,-0724,0823,12171,028.5,045.5,0.255,758.5,01.16,0.508
2015-09-04 00:26:00,2034E-3,5C000400,-0724,0822,12335,028.6,045.5,0.255,758.4,01.16,0.508
2015-09-04 00:27:00,2012E-3,5C000400,-0724,0823,12198,028.7,045.5,0.255,758.4,01.16,0.508
2015-09-04 00:28:00,2061E-3,5C000400,-0724,0823,12393,028.8,045.5,0.255,758.4,01.16,0.508
2015-09-04 00:29:00,1992E-3,5C000400,-0724,0824,12178,028.9,045.5,0.255,758.5,01.16,0.508
2015-09-04 00:30:00,1999E-3,5C000400,-0724,0823,12153,029.0,045.5,0.255,758.3,01.16,0.508
2015-09-04 00:31:00,2042E-3,5C000400,-0724,0823,12273,029.1,045.5,0.255,758.4,01.16,0.508
2015-09-04 00:32:00,1972E-3,5C000400,-0724,0822,12231,029.2,045.5,0.255,758.4,01.16,0.508
2015-09-04 00:33:00,2025E-3,5C000400,-0724,0823,12283,029.3,045.5,0.255,758.4,01.16,0.508
2015-09-04 00:34:00,2023E-3,5C000400,-0724,0823,12305,029.4,045.5,0.255,758.4,01.16,0.508
2015-09-04 00:35:00,1979E-3,5C000400,-0724,0823,12329,029.5,045.5,0.254,758.4,01.16,0.508
2015-09-04 00:36:00,2110E-3,5C000400,-0724,0823,12158,029.5,045.5,0.255,758.4,01.16,0.508
2015-09-04 00:37:00,1996E-3,5C000400,-0724,0823,12249,029.5,045.5,0.255,758.4,01.16,0.508
2015-09-04 00:38:00,2061E-3,5C000400,-0724,0824,12272,029.4,045.5,0.254,758.5,01.16,0.508
2015-09-04 00:39:00,,5C000400,-0724,0824,12300,029.3,045.5,0.254,758.5,01.16,0.508
2015-09-04 00:40:00,1915E-3,5C000400,-0724,0822,12344,029.2,045.5,0.254,758.6,01.16,0.508
2015-09-04 00:41:00,1999E-3,5C000400,-0724,0822,12271,029.0,045.5,0.254,758.5,01.16,0.508
2015-09-04 00:42:00,2133E-3,5C000400,-0724,0823,12227,028.9,045.5,0.254,758.5,01.16,0.508
2015-09-04 00:43:00,2067E-3,5C000400,-0724,0823,12406,028.8,045.5,0.255,758.6,01.16,0.508
2015-09-04 00:44:00,1950E-3,5C000400,-0724,0821,12322,028.7,045.5,0.255,758.6,01.16,0.508
2015-09-04 00:45:00,2024E-3,5C000400,-0724,0823,12200,028.6,045.5,0.255,758.6,01.16,0.508
2015-09-04 00:46:00,2156E-3,5C000400,-0724,0822,12191,028.6,045.5,0.255,758.6,01.16,0.508
2015-09-04 00:47:00,2084E-3,5C000400,-0724,0823,12167,028.7,045.5,0.255,758.5,01.16,0.508
2015-09-04 00:48:00,1981E-3,5C000400,-0724,0821,12330,028.8,045.5,0.255,758.5,01.16,0.508
2015-09-04 00:49:00,2132E-3,5C000400,-0724,0822,12215,028.9,045.5,0.255,758.6,01.16,0.508
2015-09-04 00:50:00,2000E-3,5C000400,-0724,0822,12218,028.9,045.5,0.255,758.6,01.16,0.508
2015-09-04 00:51:00,2132E-3,5C000400,-0724,0823,12251,029.1,045.5,0.255,758.6,01.16,0.508
2015-09-04 00:52:00,2089E-3,5C000400,-0724,0822,12319,029.1,045.5,0.255,758.5,01.16,0.508
2015-09-04 00:53:00,1939E-3,5C000400,-0724,0822,12321,029.1,045.5,0.255,758.5,01.16,0.508
2015-09-04 00:54:00,2047E-3,5C000400,-0724,0823,12145,029.1,045.5,0.255,758.5,01.16,0.508
2015-09-04 00:55:00,2013E-3,5C000400,-0724,0822,12233,029.0,045.5,0.255,758.5,01.16,0.508
2015-09-04 00:56:00,2041E-3,5C000400,-0724,0822,12291,028.9,045.5,0.254,758.5,01.16,0.508
2015-09-04 00:57:00,2059E-3,5C000400,-0724,0823,12320,028.8,045.5,0.255,758.5,01.16,0.508
2015-09-04 00:58:00,1898E-3,5C000400,-0724,0823,12176,028.7,045.5,0.255,758.6,01.16,0.508
2015-09-04 00:59:00,2114E-3,5C000400,-0724,0823,12176,028.6,045.5,0.255,758.6,01.16,0.508
2015-09-04 01:00:00,2084E-3,5C000400,-0724,0822,12143,028.5,045.5,0.255,758.6,01.16,0.508
2015-09-04 01:01:00,2006E-3,5C000400,-0724,0822,12364,028.5,045.5,0.255,758.6,01.16,0.508
2015-09-04 01:02:00,1922E-3,5C000400,-0724,0822,12130,028.5,045.5,0.255,758.6,01.16,0.508
2015-09-04 01:03:00,1919E-3,5C000400,-0724,0822,12264,028.6,045.5,0.255,758.6,01.16,0.508
2015-09-04 01:04:00,2080E-3,5C000400,-0724,0823,12099,028.6,045.5,0.255,758.5,01.16,0.508
2015-09-04 01:05:00,2114E-3,5C000400,-0724,0824,12225,028.6,045.5,0.255,758.5,01.16,0.508
2015-09-04 01:06:00,2014E-3,5C000400,-0724,0823,12314,028.6,045.5,0.255,758.5,01.16,0.508
2015-09-04 01:07:00,2058E-3,5C000400,-0724,0822,12404,028.6,045.5,0.255,758.6,01.16,0.508
2015-09-04 01:08:00,2002E-3,5C000400,-0724,0823,12164,028.6,045.5,0.255,758.6,01.16,0.508
2015-09-04 01:09:00,1972E-3,5C000400,-0724,0822,12272,028.5,045.5,0.255,758.6,01.16,0.508
2015-09-04 01:10:00,2014E-3,5C000400,-0724,0823,12341,028.5,045.5,0.255,758.5,01.16,0.508
2015-09-04 01:11:00,2098E-3,5C000400,-0724,0822,12083,028.5,045.5,0.255,758.5,01.16,0.508
2015-09-04 01:12:00,1935E-3,5C000400,-0724,0822,12239,028.4,045.5,0.255,758.5,01.16,0.508
2015-09-04 01:13:00,2119E-3,5C000400,-0724,0823,12227,028.4,045.5,0.255,758.5,01.16,0.508
2015-09-04 01:14:00,1923E-3,5C000400,-0724,0823,12272,028.4,045.5,0.255,758.6,01.16,0.508
2015-09-04 01:15:00,1969E-3,5C000400,-0724,0823,12287,028.4,045.5,0.256,758.5,01.16,0.508
2015-09-04 01:16:00,2094E-3,5C000400,-0724,0822,12185,028.5,045.5,0.256,758.5,01.16,0.508
2015-09-04 01:17:00,2122E-3,5C000400,-0724,0823,12354,028.5,045.5,0.255,758.6,01.16,0.508
2015-09-04 01:18:00,1930E-3,5C000400,-0724,0822,12391,028.5,045.5,0.256,758.5,01.16,0.508
2015-09-04 01:19:00,2031E-3,5C000400,-0724,0822,12183,028.5,045.5,0.256,758.4,01.16,0.508
2015-09-04 01:20:00,2057E-3,5C000400,-0724,0822,12314,028.5,045.4,0.256,758.4,01.16,0.508
2015-09-04 01:21:00,2051E-3,5C000400,-0724,0823,12405,028.4,045.5,0.256,758.3,01.16,0.508
2015-09-04 01:22:00,1998E-3,5C000400,-0724,0823,12242,028.3,045.5,0.256,758.4,01.16,0.508
2015-09-04 01:23:00,2024E-3,5C000400,-0724,0822,12218,028.3,045.5,0.256,758.4,01.16,0.508
2015-09-04 01:24:00,1976E-3,5C000400,-0724,0822,12209,028.3,045.5,0.256,758.5,01.16,0.508
2015-09-04 01:25:00,1932E-3,5C000400,-0724,0822,12201,028.4,045.5,0.255,758.3,01.16,0.508
2015-09-04 01:26:00,2076E-3,5C000400,-0724,0822,12308,028.4,045.5,0.256,758.4,01.16,0.508
2015-09-04 01:27:00,2086E-3,5C000400,-0724,0824,12104,028.5,045.5,0.256,758.3,01.16,0.508
2015-09-04 01:28:00,2036E-3,5C000400,-0724,0823,12222,028.5,045.5,0.255,758.3,01.16,0.508
2015-09-04 01:29:00,2159E-3,5C000400,-0724,0823,12344,028.5,045.5,0.256,758.3,01.16,0.508
2015-09-04 01:30:00,1951E-3,5C000400,-0724,0822,12236,028.6,045.5,0.256,758.3,01.16,0.508
2015-09-04 01:31:00,1943E-3,5C000400,-0724,0823,12218,028.5,045.5,0.255,758.3,01.16,0.508
2015-09-04 01:32:00,2042E-3,5C000400,-0724,0822,12280,028.4,045.5,0.255,758.4,01.16,0.508
2015-09-04 01:33:00,1961E-3,5C000400,-0724,0823,12319,028.3,045.5,0.256,758.5,01.16,0.508
2015-09-04 01:34:00,2163E-3,5C000400,-0724,0822,12348,028.3,045.5,0.256,758.5,01.16,0.508
2015-09-04 01:35:00,2027E-3,5C000400,-0724,0823,12274,028.2,045.5,0.256,758.4,01.16,0.508
2015-09-04 01:36:00,2087E-3,5C000400,-0724,0822,12189,028.2,045.5,0.255,758.5,01.16,0.508
2015-09-04 01:37:00,1981E-3,5C000400,-0724,0823,12230,028.3,045.5,0.256,758.4,01.16,0.508
2015-09-04 01:38:00,1980E-3,5C000400,-0724,0823,12364,028.4,045.5,0.256,758.4,01.16,0.508
2015-09-04 01:39:00,2132E-3,5C000400,-0724,0823,12350,028.5,045.4,0.255,758.4,01.16,0.508
2015-09-04 01:40:00,2034E-3,5C000400,-0724,0822,12186,028.5,045.5,0.256,758.3,01.16,0.508
2015-09-04 01:41:00,1993E-3,5C000400,-0724,0823,12152,028.6,045.5,0.256,758.3,01.16,0.508
2015-09-04 01:42:00,1973E-3,5C000400,-0724,0822,12215,028.5,045.5,0.255,758.3,01.16,0.508
2015-09-04 01:43:00,2057E-3,5C000400,-0724,0822,12252,028.4,045.5,0.256,758.4,01.16,0.508
2015-09-04 01:44:00,2016E-3,5C000400,-0724,0822,12226,028.3,045.4,0.256,758.5,01.16,0.508
2015-09-04 01:45:00,2192E-3,5C000400,-0724,0823,12348,028.2,045.5,0.256,758.4,01.16,0.508
2015-09-04 01:46:00,2039E-3,5C000400,-0724,0823,12258,028.2,045.5,0.255,758.4,01.16,0.508
2015-09-04 01:47:00,2003E-3,5C000400,-0724,0822,12311,028.3,045.5,0.256,758.4,01.16,0.508
2015-09-04 01:48:00,2009E-3,5C000400,-0724,0824,12203,028.4,045.5,0.256,758.4,01.16,0.508
2015-09-04 01:49:00,2044E-3,5C000400,-0724,0821,12227,028.5,045.5,0.256,758.3,01.16,0.508
2015-09-04 01:50:00,1916E-3,5C000400,-0724,0823,12219,028.6,045.5,0.256,758.4,01.16,0.508
2015-09-04 01:51:00,1956E-3,5C000400,-0724,0823,12354,028.7,045.5,0.256,758.3,01.16,0.508
2015-09-04 01:52:00,2107E-3,5C000400,-0724,0822,12164,028.6,045.5,0.255,758.3,01.16,0.508
2015-09-04 01:53:00,2015E-3,5C000400,-0724,0823,12255,028.6,045.5,0.256,758.4,01.16,0.508
2015-09-04 01:54:00,2048E-3,5C000400,-0724,0822,12252,028.5,045.5,0.256,758.3,01.16,0.508
2015-09-04 01:55:00,1949E-3,5C000400,-0724,0822,12236,028.4,045.4,0.256,758.4,01.16,0.508
2015-09-04 01:56:00,2097E-3,5C000400,-0724,0822,12317,028.3,045.4,0.255,758.4,01.16,0.508
2015-09-04 01:57:00,1990E-3,5C000400,-0724,0822,12174,028.3,045.5,0.255,758.4,01.16,0.508
2015-09-04 01:58:00,2081E-3,5C000400,-0724,0822,12252,028.2,045.5,0.256,758.4,01.16,0.508
2015-09-04 01:59:00,2007E-3,5C000400,-0724,0823,12332,028.3,045.5,0.256,758.4,01.16,0.508
2015-09-04 02:00:00,2011E-3,5C000400,-0724,0823,12322,028.4,045.5,0.255,758.4,01.16,0.508
2015-09-04 02:01:00,1884E-3,5C000400,-0724,0822,12290,028.5,045.5,0.256,758.4,01.16,0.508
2015-09-04 02:02:00,2028E-3,5C000400,-0724,0822,12132,028.6,045.5,0.256,758.3,01.16,0.508
2015-09-04 02:03:00,1937E-3,5C000400,-0724,0822,12330,028.7,045.5,0.256,758.3,01.16,0.508
2015-09-04 02:04:00,2025E-3,5C000400,-0724,0823,12279,028.8,045.5,0.256,758.3,01.16,0.508
2015-09-04 02:05:00,2010E-3,5C000400,-0724,0823,12221,028.9,045.5,0.256,758.3,01.16,0.508
2015-09-04 02:06:00,1955E-3,5C000400,-0724,0823,12327,029.0,045.5,0.255,758.4,01.16,0.508
2015-09-04 02:07:00,1959E-3,5C000400,-0724,0823,12319,029.1,045.5,0.255,758.3,01.16,0.508
2015-09-04 02:08:00,2030E-3,5C000400,-0724,0823,12152,029.1,045.5,0.255,758.4,01.16,0.508
2015-09-04 02:09:00,2034E-3,5C000400,-0724,0822,12268,029.1,045.5,0.255,758.4,01.16,0.508
2015-09-04 02:10:00,1952E-3,5C000400,-0724,0823,12263,029.0,045.5,0.255,758.4,01.16,0.508
2015-09-04 02:11:00,2069E-3,5C000400,-0724,0823,12160,028.9,045.5,0.255,758.4,01.16,0.508
2015-09-04 02:12:00,2084E-3,5C000400,-0724,0822,12199,028.8,045.5,0.255,758.5,01.16,0.508
2015-09-04 02:13:00,2060E-3,5C000400,-0724,0823,12204,028.6,045.5,0.255,758.5,01.16,0.508
2015-09-04 02:14:00,2022E-3,5C000400,-0724,0823,12240,028.5,045.5,0.255,758.5,01.16,0.508
2015-09-04 02:15:00,1986E-3,5C000400,-0724,0821,12292,028.4,045.5,0.255,758.4,01.16,0.508
2015-09-04 02:16:00,2134E-3,5C000400,-0724,0821,12289,028.4,045.5,0.255,758.4,01.16,0.508
2015-09-04 02:17:00,2087E-3,5C000400,-0724,0821,12218,028.4,045.5,0.255,758.4,01.16,0.508
2015-09-04 02:18:00,1929E-3,5C000400,-0724,0821,12277,028.4,045.5,0.255,758.4,01.16,0.508
2015-09-04 02:19:00,2169E-3,5C000400,-0724,0823,12223,028.4,045.5,0.255,758.4,01.16,0.508
2015-09-04 02:20:00,1992E-3,5C000400,-0724,0821,12158,028.5,045.5,0.255,758.3,01.16,0.508
2015-09-04 02:21:00,2132E-3,5C000400,-0724,0822,12179,028.6,045.5,0.256,758.3,01.16,0.508
2015-09-04 02:22:00,1905E-3,5C000400,-0724,0821,12264,028.6,045.5,0.256,758.3,01.16,0.508
2015-09-04 02:23:00,2079E-3,5C000400,-0724,0823,12057,028.7,045.5,0.256,758.3,01.16,0.508
2015-09-04 02:24:00,2063E-3,5C000400,-0724,0823,12262,028.7,045.5,0.255,758.3,01.16,0.508
2015-09-04 02:25:00,1961E-3,5C000400,-0724,0822,12272,028.7,045.5,0.255,758.3,01.16,0.508
2015-09-04 02:26:00,2115E-3,5C000400,-0724,0822,12200,028.5,045.5,0.256,758.3,01.16,0.508
2015-09-04 02:27:00,1974E-3,5C000400,-0724,0821,12271,028.5,045.4,0.255,758.3,01.16,0.508
2015-09-04 02:28:00,2026E-3,5C000400,-0724,0822,12241,028.4,045.5,0.255,758.3,01.16,0.508
2015-09-04 02:29:00,1889E-3,5C000400,-0724,0822,12235,028.3,045.5,0.255,758.4,01.16,0.508
2015-09-04 02:30:00,1977E-3,5C000400,-0724,0821,12373,028.3,045.5,0.256,758.4,01.16,0.508
2015-09-04 02:31:00,2147E-3,5C000400,-0724,0822,12258,028.3,045.5,0.256,758.4,01.16,0.508
2015-09-04 02:32:00,2008E-3,5C000400,-0724,0822,12336,028.3,045.5,0.256,758.4,01.16,0.508
2015-09-04 02:33:00,2048E-3,5C000400,-0724,0822,12161,028.4,045.5,0.255,758.3,01.16,0.508
2015-09-04 02:34:00,2122E-3,5C000400,-0724,0822,12365,028.4,045.5,0.256,758.4,01.16,0.508
2015-09-04 02:35:00,2143E-3,5C000400,-0724,0822,12180,028.5,045.5,0.256,758.4,01.16,0.508
2015-09-04 02:36:00,2109E-3,5C000400,-0724,0823,12208,028.5,045.5,0.255,758.4,01.16,0.508
2015-09-04 02:37:00,2016E-3,5C000400,-0724,0822,12225,028.6,045.5,0.256,758.3,01.16,0.508
2015-09-04 02:38:00,2173E-3,5C000400,-0724,0821,12308,028.7,045.5,0.256,758.3,01.16,0.508
2015-09-04 02:39:00,1949E-3,5C000400,-0724,0823,12197,028.6,045.5,0.255,758.3,01.16,0.508
2015-09-04 02:40:00,1978E-3,5C000400,-0724,0822,12256,028.6,045.5,0.256,758.3,01.16,0.508
2015-09-04 02:41:00,2056E-3,5C000400,-0724,0822,12263,028.5,045.5,0.256,758.3,01.16,0.508
2015-09-04 02:42:00,1898E-3,5C000400,-0724,0822,12275,028.4,045.4,0.255,758.4,01.16,0.508
2015-09-04 02:43:00,2037E-3,5C000400,-0724,0823,12213,028.3,045.5,0.255,758.4,01.16,0.508
2015-09-04 02:44:00,2124E-3,5C000400,-0724,0822,12244,028.3,045.4,0.256,758.5,01.16,0.508
2015-09-04 02:45:00,2180E-3,5C000400,-0724,0822,12394,028.2,045.5,0.256,758.5,01.16,0.508
2015-09-04 02:46:00,2101E-3,5C000400,-0724,0822,12287,028.3,045.5,0.256,758.5,01.16,0.508
2015-09-04 02:47:00,1998E-3,5C000400,-0724,0822,12312,028.4,045.5,0.255,758.4,01.16,0.508
2015-09-04 02:48:00,2070E-3,5C000400,-0724,0822,12210,028.5,045.5,0.256,758.4,01.16,0.508
2015-09-04 02:49:00,2006E-3,5C000400,-0724,0823,12288,028.6,045.5,0.256,758.3,01.16,0.508
2015-09-04 02:50:00,2102E-3,5C000400,-0724,0823,12307,028.8,045.5,0.255,758.3,01.16,0.508
2015-09-04 02:51:00,1947E-3,5C000400,-0724,0824,12209,028.8,045.5,0.256,758.3,01.16,0.508
2015-09-04 02:52:00,2089E-3,5C000400,-0724,0823,12409,028.8,045.5,0.255,758.3,01.16,0.508
2015-09-04 02:53:00,1956E-3,5C000400,-0724,0823,12390,028.7,045.5,0.255,758.3,01.16,0.508
2015-09-04 02:54:00,2033E-3,5C000400,-0724,0823,12195,028.6,045.5,0.255,758.3,01.16,0.508
2015-09-04 02:55:00,1924E-3,5C000400,-0724,0823,12172,028.5,045.5,0.256,758.4,01.16,0.508
2015-09-04 02:56:00,1896E-3,5C000400,-0724,0823,12306,028.4,045.5,0.255,758.4,01.16,0.508
2015-09-04 02:57:00,2171E-3,5C000400,-0724,0823,12236,028.3,045.5,0.255,758.4,01.16,0.508
2015-09-04 02:58:00,2154E-3,5C000400,-0724,0823,12139,028.3,045.5,0.255,758.4,01.16,0.508
2015-09-04 02:59:00,2069E-3,5C000400,-0724,0822,12175,028.2,045.5,0.255,758.4,01.16,0.508
2015-09-04 03:00:00,1891E-3,5C000400,-0724,0823,12178,028.3,045.5,0.256,758.4,01.16,0.508
2015-09-04 03:01:00,2163E-3,5C000400,-0724,0822,12306,028.3,045.5,0.256,758.4,01.16,0.508
2015-09-04 03:02:00,2051E-3,5C000400,-0724,0823,12436,028.4,045.5,0.256,758.4,01.16,0.508
2015-09-04 03:03:00,2116E-3,5C000400,-0724,0822,12371,028.5,045.5,0.255,758.4,01.16,0.508
2015-09-04 03:04:00,1953E-3,5C000400,-0724,0823,12402,028.5,045.5,0.256,758.5,01.16,0.508
2015-09-04 03:05:00,2073E-3,5C000400,-0724,0823,12251,028.5,045.5,0.256,758.5,01.16,0.508
2015-09-04 03:06:00,2016E-3,5C000400,-0724,0823,12271,028.5,045.5,0.255,758.4,01.16,0.508
2015-09-04 03:07:00,2048E-3,5C000400,-0724,0823,12188,028.4,045.5,0.256,758.4,01.16,0.508
2015-09-04 03:08:00,2012E-3,5C000400,-0724,0823,12246,028.3,045.5,0.256,758.4,01.16,0.508
2015-09-04 03:09:00,2111E-3,5C000400,-0724,0823,12233,028.3,045.5,0.256,758.5,01.16,0.508
2015-09-04 03:10:00,1917E-3,5C000400,-0724,0823,12202,028.2,045.5,0.256,758.4,01.16,0.508
2015-09-04 03:11:00,1879E-3,5C000400,-0724,0822,12214,028.2,045.4,0.255,758.4,01.16,0.508
2015-09-04 03:12:00,1985E-3,5C000400,-0724,0822,12168,028.3,045.5,0.256,758.4,01.16,0.508
2015-09-04 03:13:00,1893E-3,5C000400,-0724,0822,12181,028.5,045.5,0.256,758.4,01.16,0.508
2015-09-04 03:14:00,1900E-3,5C000400,-0724,0822,12096,028.5,045.5,0.256,758.4,01.16,0.508
2015-09-04 03:15:00,2005E-3,5C000400,-0724,0823,12290,028.5,045.5,0.255,758.3,01.16,0.508
2015-09-04 03:16:00,1932E-3,5C000400,-0724,0823,12393,028.5,045.5,0.256,758.3,01.16,0.508
2015-09-04 03:17:00,2154E-3,5C000400,-0724,0822,12315,028.4,045.5,0.256,758.3,01.16,0.508
2015-09-04 03:18:00,2084E-3,5C000400,-0724,0822,12414,028.3,045.5,0.256,758.4,01.16,0.508
2015-09-04 03:19:00,1984E-3,5C000400,-0724,0822,12333,028.2,045.5,0.255,758.4,01.16,0.508
2015-09-04 03:20:00,1972E-3,5C000400,-0724,0822,12228,028.1,045.4,0.256,758.4,01.16,0.508
2015-09-04 03:21:00,2032E-3,5C000400,-0724,0822,12281,028.1,045.4,0.256,758.4,01.16,0.508
2015-09-04 03:22:00,2125E-3,5C000400,-0724,0822,12267,028.1,045.5,0.256,758.3,01.16,0.508
2015-09-04 03:23:00,1920E-3,5C000400,-0724,0822,12237,028.2,045.5,0.256,758.3,01.16,0.508
2015-09-04 03:24:00,2019E-3,5C000400,-0724,0822,12396,028.3,045.5,0.256,758.3,01.16,0.508
2015-09-04 03:25:00,1956E-3,5C000400,-0724,0823,12272,028.4,045.5,0.256,758.3,01.16,0.508
2015-09-04 03:26:00,2064E-3,5C000400,-0724,0822,12273,028.5,045.5,0.256,758.3,01.16,0.508
2015-09-04 03:27:00,1968E-3,5C000400,-0724,0822,12364,028.6,045.5,0.256,758.3,01.16,0.508
2015-09-04 03:28:00,2050E-3,5C000400,-0724,0822,12249,028.6,045.5,0.256,758.3,01.16,0.508
2015-09-04 03:29:00,1958E-3,5C000400,-0724,0822,12400,028.5,045.5,0.256,758.3,01.16,0.508
2015-09-04 03:30:00,1881E-3,5C000400,-0724,0823,12310,028.4,045.5,0.256,758.4,01.16,0.508
2015-09-04 03:31:00,1918E-3,5C000400,-0724,0823,12425,028.3,045.4,0.255,758.3,01.16,0.508
2015-09-04 03:32:00,2033E-3,5C000400,-0724,0822,12301,028.2,045.5,0.256,758.4,01.16,0.508
2015-09-04 03:33:00,1940E-3,5C000400,-0724,0823,12273,028.2,045.4,0.256,758.3,01.16,0.508
2015-09-04 03:34:00,2018E-3,5C000400,-0724,0823,12119,028.1,045.5,0.256,758.3,01.16,0.508
2015-09-04 03:35:00,2068E-3,5C000400,-0724,0823,12143,028.1,045.5,0.256,758.4,01.16,0.508
2015-09-04 03:36:00,1940E-3,5C000400,-0724,0822,12362,028.1,045.5,0.255,758.3,01.16,0.508
2015-09-04 03:37:00,2170E-3,5C000400,-0724,0822,12161,028.3,045.5,0.256,758.3,01.16,0.508
2015-09-04 03:38:00,2010E-3,5C000400,-0724,0823,12301,028.4,045.5,0.256,758.4,01.16,0.508
2015-09-04 03:39:00,1959E-3,5C000400,-0724,0823,12294,028.5,045.5,0.256,758.3,01.16,0.508
2015-09-04 03:40:00,1933E-3,5C000400,-0724,0823,12170,028.6,045.5,0.256,758.3,01.16,0.508
2015-09-04 03:41:00,2019E-3,5C000400,-0724,0823,12219,028.7,045.5,0.256,758.3,01.16,0.508
2015-09-04 03:42:00,2066E-3,5C000400,-0724,0823,12047,028.8,045.5,0.255,758.3,01.16,0.508
2015-09-04 03:43:00,2009E-3,5C000400,-0724,0822,12273,028.8,045.5,0.256,758.3,01.16,0.508
2015-09-04 03:44:00,2065E-3,5C000400,-0724,0823,12253,028.8,045.5,0.256,758.3,01.16,0.508
2015-09-04 03:45:00,2036E-3,5C000400,-0724,0822,12116,028.7,045.5,0.255,758.3,01.16,0.508
2015-09-04 03:46:00,2079E-3,5C000400,-0724,0822,12278,028.6,045.5,0.255,758.3,01.16,0.508
2015-09-04 03:47:00,2059E-3,5C000400,-0724,0824,12156,028.5,045.4,0.256,758.4,01.16,0.508
2015-09-04 03:48:00,2022E-3,5C000400,-0724,0823,12151,028.4,045.5,0.256,758.4,01.16,0.508
2015-09-04 03:49:00,1976E-3,5C000400,-0724,0823,12340,028.3,045.5,0.255,758.4,01.16,0.508
2015-09-04 03:50:00,1918E-3,5C000400,-0724,0823,12296,028.2,045.5,0.255,758.5,01.16,0.508
2015-09-04 03:51:00,2055E-3,5C000400,-0724,0823,12245,028.2,045.5,0.255,758.4,01.16,0.508
2015-09-04 03:52:00,2098E-3,5C000400,-0724,0824,12375,028.1,045.5,0.255,758.4,01.16,0.508
2015-09-04 03:53:00,2034E-3,5C000400,-0724,0823,12274,028.2,045.5,0.256,758.4,01.16,0.508
2015-09-04 03:54:00,1853E-3,5C000400,-0724,0823,12158,028.3,045.5,0.256,758.4,01.16,0.508
2015-09-04 03:55:00,1993E-3,5C000400,-0724,0823,12333,028.5,045.5,0.256,758.4,01.16,0.508
2015-09-04 03:56:00,2149E-3,5C000400,-0724,0823,12269,028.6,045.5,0.255,758.4,01.16,0.508
2015-09-04 03:57:00,2102E-3,5C000400,-0724,0824,12316,028.7,045.5,0.256,758.4,01.16,0.508
2015-09-04 03:58:00,1942E-3,5C000400,-0724,0823,12205,028.8,045.5,0.256,758.4,01.16,0.508
2015-09-04 03:59:00,2107E-3,5C000400,-0724,0823,12187,028.8,045.5,0.255,758.4,01.16,0.508
2015-09-04 04:00:00,2063E-3,5C000400,-0724,0823,12271,028.8,045.5,0.256,758.3,01.16,0.508
2015-09-04 04:01:00,2130E-3,5C000400,-0724,0823,12189,028.7,045.5,0.255,758.4,01.16,0.508
2015-09-04 04:02:00,2152E-3,5C000400,-0724,0823,12287,028.6,045.5,0.255,758.4,01.16,0.508
2015-09-04 04:03:00,2080E-3,5C000400,-0724,0823,12371,028.5,045.5,0.255,758.4,01.16,0.508
2015-09-04 04:04:00,2052E-3,5C000400,-0724,0823,12269,028.4,045.5,0.256,758.4,01.16,0.508
2015-09-04 04:05:00,2110E-3,5C000400,-0724,0823,12184,028.3,045.5,0.256,758.4,01.16,0.508
2015-09-04 04:06:00,2082E-3,5C000400,-0724,0823,12229,028.2,045.4,0.255,758.4,01.16,0.508
2015-09-04 04:07:00,2152E-3,5C000400,-0724,0823,12225,028.2,045.4,0.255,758.4,01.16,0.508
2015-09-04 04:08:00,2044E-3,5C000400,-0724,0823,12327,028.2,045.5,0.255,758.4,01.16,0.508
2015-09-04 04:09:00,2097E-3,5C000400,-0724,0822,12318,028.3,045.5,0.256,758.3,01.16,0.508
2015-09-04 04:10:00,2117E-3,5C000400,-0724,0823,12241,028.4,045.5,0.256,758.3,01.16,0.508
2015-09-04 04:11:00,1997E-3,5C000400,-0724,0823,12239,028.4,045.5,0.255,758.3,01.16,0.508
2015-09-04 04:12:00,2067E-3,5C000400,-0724,0822,12149,028.5,045.5,0.256,758.3,01.16,0.508
2015-09-04 04:13:00,2020E-3,5C000400,-0724,0823,12151,028.6,045.5,0.256,758.3,01.16,0.508
2015-09-04 04:14:00,2065E-3,5C000400,-0724,0823,12244,028.5,045.5,0.256,758.3,01.16,0.508
2015-09-04 04:15:00,1949E-3,5C000400,-0724,0822,12291,028.5,045.5,0.255,758.3,01.16,0.508
2015-09-04 04:16:00,2111E-3,5C000400,-0724,0822,12276,028.4,045.5,0.256,758.3,01.16,0.508
2015-09-04 04:17:00,2011E-3,5C000400,-0724,0822,12174,028.3,045.4,0.256,758.3,01.16,0.508
2015-09-04 04:18:00,2032E-3,5C000400,-0724,0822,12322,028.2,045.4,0.256,758.3,01.16,0.508
2015-09-04 04:19:00,1797E-3,5C000400,-0724,0822,12287,028.2,045.5,0.255,758.3,01.16,0.508
2015-09-04 04:20:00,2131E-3,5C000400,-0724,0822,12344,028.2,045.4,0.256,758.3,01.16,0.508